User: anonymous   Login
Location: Unspecified
(0.0000°N, 0.0000°E)
Time: 21:16:14
(UTC+02:00)
Language:

Cosmos 1315 Rocket - Orbit

View from above orbital plane
View from above orbital plane
View from above satellite
View from above satellite

Ground track
Ground track

The orbit data is extracted from the following two-line orbital elements,

1 12904U 81103B   16204.90757914 +.00000554 +00000-0 +37010-4 0  9993
2 12904 081.1780 291.5423 0029833 069.4714 290.9705 15.04986670443071
Epoch (UTC): 22 July 2016 21:46:54
Eccentricity: 0.0029833
inclination: 81.1780°
perigee height: 531 km
apogee height: 572 km
right ascension of ascending node: 291.5423°
argument of perigee: 69.4714°
revolutions per day: 15.04986670
mean anomaly at epoch: 290.9705°
orbit number at epoch: 44307

The dashed part of the orbit path shows where the satellite is in the earth's shadow,  

DLR